Chelan, Washington, United States (98816)
Lat: 47.84N, Lon: 120.02W
Wx Zone: WAZ041
Local Info
Past Weather Observations for Today

NOTE: This archive is for the closest National Weather Service station to Chelan. Information may differ from the station used for current weather conditions.

Click here for Long-term Archive

Time Weather Temperature Dewpoint Humidity Pressure Winds Precip Visibility
22:55
Clear
66°F / 19°C 50°F / 10°C 56% 30.06 in
(1018 mb)
NNW 5.8 mph
(NNW 9 kph)
- 10SM
21:55
Clear
68°F / 20°C 48°F / 9°C 49% 30.06 in
(1018 mb)
NNW 5.8 mph
(NNW 9 kph)
- 10SM
20:55
Clear
72°F / 22°C 48°F / 9°C 44% 30.06 in
(1018 mb)
WNW 11.5 mph
(WNW 19 kph)
- 10SM
19:55
Clear
73°F / 23°C 48°F / 9°C 41% 30.04 in
(1017 mb)
W 13.8 mph
(W 22 kph)
- 10SM
18:55
Clear
75°F / 24°C 48°F / 9°C 39% 30.01 in
(1016 mb)
WNW 19.6 mph
(WNW 32 kph)
- 10SM
17:55
Clear
77°F / 25°C 48°F / 9°C 36% 29.98 in
(1015 mb)
NW 17.3 mph
(NW 28 kph)
- 10SM
16:55
Clear
82°F / 28°C 48°F / 9°C 30% 29.98 in
(1015 mb)
NW 13.8 mph
(NW 22 kph)
- 10SM
15:55
Clear
82°F / 28°C 46°F / 8°C 28% 29.98 in
(1015 mb)
NW 9.2 mph
(NW 15 kph)
- 10SM
14:55
Clear
82°F / 28°C 46°F / 8°C 28% 29.98 in
(1015 mb)
SSW 6.9 mph
(SSW 11 kph)
- 10SM
13:55
Clear
82°F / 28°C 46°F / 8°C 28% 29.98 in
(1015 mb)
Calm - 10SM
12:55
Clear
82°F / 28°C 46°F / 8°C 28% 29.98 in
(1015 mb)
ENE 3.5 mph
(ENE 6 kph)
- 10SM
11:55
Clear
79°F / 26°C 46°F / 8°C 32% 30.01 in
(1016 mb)
Variable 4.6 mph
(Variable 7 kph)
- 10SM
10:55
Clear
77°F / 25°C 46°F / 8°C 34% 30.01 in
(1016 mb)
Variable 4.6 mph
(Variable 7 kph)
- 10SM
09:55
Clear
75°F / 24°C 48°F / 9°C 39% 30.01 in
(1016 mb)
W 4.6 mph
(W 7 kph)
- 10SM
08:55
Clear
72°F / 22°C 48°F / 9°C 44% 30.01 in
(1016 mb)
W 6.9 mph
(W 11 kph)
- 10SM
07:55
Clear
72°F / 22°C 48°F / 9°C 44% 30.01 in
(1016 mb)
NW 10.4 mph
(NW 17 kph)
- 10SM
06:55
Clear
66°F / 19°C 50°F / 10°C 56% 29.98 in
(1015 mb)
ESE 5.8 mph
(ESE 9 kph)
- 10SM
05:55
Clear
66°F / 19°C 50°F / 10°C 56% 29.95 in
(1014 mb)
NW 8.1 mph
(NW 13 kph)
- 10SM
04:55
Clear
66°F / 19°C 48°F / 9°C 52% 29.92 in
(1013 mb)
NW 17.3 mph
(NW 28 kph)
- 10SM
03:55
Clear
68°F / 20°C 48°F / 9°C 49% 29.92 in
(1013 mb)
WNW 19.6 mph
(WNW 32 kph)
- 10SM
02:55
Clear
68°F / 20°C 48°F / 9°C 49% 29.92 in
(1013 mb)
NW 16.1 mph
(NW 26 kph)
- 10SM
01:55
Clear
70°F / 21°C 48°F / 9°C 46% 29.92 in
(1013 mb)
NW 16.1 mph
(NW 26 kph)
- 10SM
00:55
Clear
70°F / 21°C 48°F / 9°C 46% 29.89 in
(1012 mb)
NW 15 mph
(NW 24 kph)
- 10SM
Time Weather Temperature Dewpoint Humidity Pressure Winds Precip Visibility


Weather for websites

WeatherForYou.com, LLC is not responsible for any damages or problems caused by this service. Current weather conditions are obtained from the closest station including government and personal stations which may have varying degrees of accuracy. Weather forecasts are derived from the NOAA NDFD. Like all things, this site belongs to Jesus Christ... He just trusts me to maintain it. If you have any questions or comments email webmaster@weatherforyou.com

Copyright © 2014, WeatherForYou.com LLC. All rights reserved.